Location: ?????????
(38.0736°N, 23.2119°E)
Time: 15:03:39
(UTC+00:00)

Cosmos 2297 Rocket - Pass Details

Date: 18 April 2024
Orbit: 841 x 841 km, 71.0° (Epoch: 18 May)

Event Time Altitude Azimuth Distance (km) Brightness Sun altitude
Rises 18:50:11 0° 346° (NNW) 3,402 6.1 -19.5°
Reaches altitude 10° 18:52:53 10° 355° (N) 2,464 5.1 -19.9°
Maximum altitude 18:57:59 34° 60° (ENE) 1,362 3.0 -20.8°
Enters shadow 18:58:58 32° 81° (E) 1,420 3.0 -20.9°
